Back to catalog

SL-12 R/B(2)

AliveGEO
NORAD 33111·ROCKET BODY·🇷🇺 Russia

Launched Jun 27, 2008 from Baikonur Cosmodrome

Loading…

TLE

FreshSource: Space-Track

Epoch: Sep 14, 2026, 10:44 UTC

1 33111U 08033D   26257.44746459 -.00000117  00000-0  00000-0 0  9998
2 33111  10.7315  40.4777 0030308 341.1294 208.3978  1.00308484 66709

Track SL-12 R/B(2) in real time with AllMySat

Download on the App Store